Year,Month,Day,Hour,Minute,Value (Times are PST for temperature in C)
2012,10,02,00,00,14.40
2012,10,02,00,01,14.40
2012,10,02,00,02,14.30
2012,10,02,00,03,14.30
2012,10,02,00,04,14.30
2012,10,02,00,05,14.20
2012,10,02,00,06,14.20
2012,10,02,00,07,14.20
2012,10,02,00,08,14.10
2012,10,02,00,09,14.10
2012,10,02,00,10,14.00
2012,10,02,00,11,14.00
2012,10,02,00,12,13.90
2012,10,02,00,13,13.90
2012,10,02,00,14,13.80
2012,10,02,00,15,13.80
2012,10,02,00,16,13.70
2012,10,02,00,17,13.70
2012,10,02,00,18,13.60
2012,10,02,00,19,13.60
2012,10,02,00,20,13.60
2012,10,02,00,21,13.60
2012,10,02,00,22,13.70
2012,10,02,00,23,13.70
2012,10,02,00,24,13.70
2012,10,02,00,25,13.70
2012,10,02,00,26,13.70
2012,10,02,00,27,13.70
2012,10,02,00,28,13.80
2012,10,02,00,29,13.80
2012,10,02,00,30,13.80
2012,10,02,00,31,13.90
2012,10,02,00,32,13.90
2012,10,02,00,33,13.90
2012,10,02,00,34,14.00
2012,10,02,00,35,14.00
2012,10,02,00,36,14.10
2012,10,02,00,37,14.10
2012,10,02,00,38,14.10
2012,10,02,00,39,14.10
2012,10,02,00,40,14.10
2012,10,02,00,41,14.00
2012,10,02,00,42,14.00
2012,10,02,00,43,14.00
2012,10,02,00,44,13.90
2012,10,02,00,45,13.90
2012,10,02,00,46,13.90
2012,10,02,00,47,13.80
2012,10,02,00,48,13.80
2012,10,02,00,49,13.80
2012,10,02,00,50,13.70
2012,10,02,00,51,13.70
2012,10,02,00,52,13.70
2012,10,02,00,53,13.70
2012,10,02,00,54,13.60
2012,10,02,00,55,13.60
2012,10,02,00,56,13.50
2012,10,02,00,57,13.50
2012,10,02,00,58,13.40
2012,10,02,00,59,13.40
2012,10,02,01,00,13.40
2012,10,02,01,01,13.30
2012,10,02,01,02,13.30
2012,10,02,01,03,13.30
2012,10,02,01,04,13.30
2012,10,02,01,05,13.30
2012,10,02,01,06,13.30
2012,10,02,01,07,13.30
2012,10,02,01,08,13.30
2012,10,02,01,09,13.30
2012,10,02,01,10,13.40
2012,10,02,01,11,13.40
2012,10,02,01,12,13.40
2012,10,02,01,13,13.30
2012,10,02,01,14,13.30
2012,10,02,01,15,13.30
2012,10,02,01,16,13.30
2012,10,02,01,17,13.30
2012,10,02,01,18,13.30
2012,10,02,01,19,13.20
2012,10,02,01,20,13.20
2012,10,02,01,21,13.20
2012,10,02,01,22,13.10
2012,10,02,01,23,13.10
2012,10,02,01,24,13.10
2012,10,02,01,25,13.10
2012,10,02,01,26,13.10
2012,10,02,01,27,13.10
2012,10,02,01,28,13.00
2012,10,02,01,29,13.00
2012,10,02,01,30,13.00
2012,10,02,01,31,12.90
2012,10,02,01,32,12.90
2012,10,02,01,33,12.80
2012,10,02,01,34,12.80
2012,10,02,01,35,12.70
2012,10,02,01,36,12.70
2012,10,02,01,37,12.70
2012,10,02,01,38,12.60
2012,10,02,01,39,12.60
2012,10,02,01,40,12.60
2012,10,02,01,41,12.60
2012,10,02,01,42,12.60
2012,10,02,01,43,12.60
2012,10,02,01,44,12.50
2012,10,02,01,45,12.50
2012,10,02,01,46,12.50
2012,10,02,01,47,12.50
2012,10,02,01,48,12.60
2012,10,02,01,49,12.60
2012,10,02,01,50,12.60
2012,10,02,01,51,12.60
2012,10,02,01,52,12.60
2012,10,02,01,53,12.60
2012,10,02,01,54,12.70
2012,10,02,01,55,12.70
2012,10,02,01,56,12.70
2012,10,02,01,57,12.80
2012,10,02,01,58,12.80
2012,10,02,01,59,12.90
2012,10,02,02,00,12.90
2012,10,02,02,01,12.90
2012,10,02,02,02,13.00
2012,10,02,02,03,13.00
2012,10,02,02,04,13.00
2012,10,02,02,05,13.00
2012,10,02,02,06,13.00
2012,10,02,02,07,13.00
2012,10,02,02,08,13.00
2012,10,02,02,09,12.90
2012,10,02,02,10,12.90
2012,10,02,02,11,12.90
2012,10,02,02,12,12.90
2012,10,02,02,13,12.90
2012,10,02,02,14,12.90
2012,10,02,02,15,12.90
2012,10,02,02,16,12.90
2012,10,02,02,17,12.90
2012,10,02,02,18,12.90
2012,10,02,02,19,12.80
2012,10,02,02,20,12.80
2012,10,02,02,21,12.80
2012,10,02,02,22,12.70
2012,10,02,02,23,12.70
2012,10,02,02,24,12.60
2012,10,02,02,25,12.60
2012,10,02,02,26,12.50
2012,10,02,02,27,12.40
2012,10,02,02,28,12.40
2012,10,02,02,29,12.30
2012,10,02,02,30,12.30
2012,10,02,02,31,12.20
2012,10,02,02,32,12.10
2012,10,02,02,33,12.10
2012,10,02,02,34,12.00
2012,10,02,02,35,12.00
2012,10,02,02,36,11.90
2012,10,02,02,37,11.90
2012,10,02,02,38,11.80
2012,10,02,02,39,11.80
2012,10,02,02,40,11.80
2012,10,02,02,41,11.80
2012,10,02,02,42,11.70
2012,10,02,02,43,11.70
2012,10,02,02,44,11.70
2012,10,02,02,45,11.60
2012,10,02,02,46,11.60
2012,10,02,02,47,11.60
2012,10,02,02,48,11.60
2012,10,02,02,49,11.60
2012,10,02,02,50,11.50
2012,10,02,02,51,11.50
2012,10,02,02,52,11.40
2012,10,02,02,53,11.40
2012,10,02,02,54,11.40
2012,10,02,02,55,11.40
2012,10,02,02,56,11.40
2012,10,02,02,57,11.30
2012,10,02,02,58,11.20
2012,10,02,02,59,11.20
2012,10,02,03,00,11.10
2012,10,02,03,01,11.00
2012,10,02,03,02,11.00
2012,10,02,03,03,10.90
2012,10,02,03,04,10.80
2012,10,02,03,05,10.80
2012,10,02,03,06,10.80
2012,10,02,03,07,10.80
2012,10,02,03,08,10.70
2012,10,02,03,09,10.70
2012,10,02,03,10,10.70
2012,10,02,03,11,10.70
2012,10,02,03,12,10.70
2012,10,02,03,13,10.70
2012,10,02,03,14,10.70
2012,10,02,03,15,10.70
2012,10,02,03,16,10.70
2012,10,02,03,17,10.70
2012,10,02,03,18,10.70
2012,10,02,03,19,10.70
2012,10,02,03,20,10.70
2012,10,02,03,21,10.70
2012,10,02,03,22,10.70
2012,10,02,03,23,10.70
2012,10,02,03,24,10.60
2012,10,02,03,25,10.60
2012,10,02,03,26,10.50
2012,10,02,03,27,10.50
2012,10,02,03,28,10.40
2012,10,02,03,29,10.40
2012,10,02,03,30,10.40
2012,10,02,03,31,10.40
2012,10,02,03,32,10.40
2012,10,02,03,33,10.40
2012,10,02,03,34,10.40
2012,10,02,03,35,10.40
2012,10,02,03,36,10.40
2012,10,02,03,37,10.40
2012,10,02,03,38,10.40
2012,10,02,03,39,10.40
2012,10,02,03,40,10.40
2012,10,02,03,41,10.40
2012,10,02,03,42,10.40
2012,10,02,03,43,10.40
2012,10,02,03,44,10.40
2012,10,02,03,45,10.30
2012,10,02,03,46,10.30
2012,10,02,03,47,10.30
2012,10,02,03,48,10.30
2012,10,02,03,49,10.30
2012,10,02,03,50,10.20
2012,10,02,03,51,10.20
2012,10,02,03,52,10.20
2012,10,02,03,53,10.20
2012,10,02,03,54,10.20
2012,10,02,03,55,10.20
2012,10,02,03,56,10.20
2012,10,02,03,57,10.20
2012,10,02,03,58,10.20
2012,10,02,03,59,10.20
2012,10,02,04,00,10.20
2012,10,02,04,01,10.10
2012,10,02,04,02,10.10
2012,10,02,04,03,10.10
2012,10,02,04,04,10.00
2012,10,02,04,05,10.00
2012,10,02,04,06,9.90
2012,10,02,04,07,9.90
2012,10,02,04,08,9.90
2012,10,02,04,09,9.80
2012,10,02,04,10,9.80
2012,10,02,04,11,9.80
2012,10,02,04,12,9.80
2012,10,02,04,13,9.70
2012,10,02,04,14,9.70
2012,10,02,04,15,9.70
2012,10,02,04,16,9.60
2012,10,02,04,17,9.60
2012,10,02,04,18,9.60
2012,10,02,04,19,9.60
2012,10,02,04,20,9.60
2012,10,02,04,21,9.60
2012,10,02,04,22,9.70
2012,10,02,04,23,9.70
2012,10,02,04,24,9.60
2012,10,02,04,25,9.60
2012,10,02,04,26,9.60
2012,10,02,04,27,9.60
2012,10,02,04,28,9.60
2012,10,02,04,29,9.60
2012,10,02,04,30,9.60
2012,10,02,04,31,9.60
2012,10,02,04,32,9.60
2012,10,02,04,33,9.60
2012,10,02,04,34,9.60
2012,10,02,04,35,9.60
2012,10,02,04,36,9.60
2012,10,02,04,37,9.60
2012,10,02,04,38,9.60
2012,10,02,04,39,9.60
2012,10,02,04,40,9.70
2012,10,02,04,41,9.70
2012,10,02,04,42,9.70
2012,10,02,04,43,9.80
2012,10,02,04,44,9.80
2012,10,02,04,45,9.80
2012,10,02,04,46,9.80
2012,10,02,04,47,9.80
2012,10,02,04,48,9.80
2012,10,02,04,49,9.80
2012,10,02,04,50,9.80
2012,10,02,04,51,9.80
2012,10,02,04,52,9.80
2012,10,02,04,53,9.80
2012,10,02,04,54,9.80
2012,10,02,04,55,9.80
2012,10,02,04,56,9.70
2012,10,02,04,57,9.70
2012,10,02,04,58,9.70
2012,10,02,04,59,9.70
2012,10,02,05,00,9.70
2012,10,02,05,01,9.70
2012,10,02,05,02,9.60
2012,10,02,05,03,9.60
2012,10,02,05,04,9.60
2012,10,02,05,05,9.60
2012,10,02,05,06,9.60
2012,10,02,05,07,9.60
2012,10,02,05,08,9.60
2012,10,02,05,09,9.50
2012,10,02,05,10,9.50
2012,10,02,05,11,9.50
2012,10,02,05,12,9.50
2012,10,02,05,13,9.40
2012,10,02,05,14,9.40
2012,10,02,05,15,9.50
2012,10,02,05,16,9.60
2012,10,02,05,17,9.60
2012,10,02,05,18,9.60
2012,10,02,05,19,9.60
2012,10,02,05,20,9.60
2012,10,02,05,21,9.60
2012,10,02,05,22,9.70
2012,10,02,05,23,9.70
2012,10,02,05,24,9.70
2012,10,02,05,25,9.70
2012,10,02,05,26,9.70
2012,10,02,05,27,9.70
2012,10,02,05,28,9.70
2012,10,02,05,29,9.70
2012,10,02,05,30,9.60
2012,10,02,05,31,9.60
2012,10,02,05,32,9.50
2012,10,02,05,33,9.40
2012,10,02,05,34,9.30
2012,10,02,05,35,9.30
2012,10,02,05,36,9.20
2012,10,02,05,37,9.20
2012,10,02,05,38,9.20
2012,10,02,05,39,9.10
2012,10,02,05,40,9.10
2012,10,02,05,41,9.10
2012,10,02,05,42,9.00
2012,10,02,05,43,9.00
2012,10,02,05,44,8.90
2012,10,02,05,45,8.90
2012,10,02,05,46,8.80
2012,10,02,05,47,8.80
2012,10,02,05,48,8.70
2012,10,02,05,49,8.70
2012,10,02,05,50,8.70
2012,10,02,05,51,8.70
2012,10,02,05,52,8.70
2012,10,02,05,53,8.60
2012,10,02,05,54,8.60
2012,10,02,05,55,8.60
2012,10,02,05,56,8.60
2012,10,02,05,57,8.60
2012,10,02,05,58,8.60
2012,10,02,05,59,8.70
2012,10,02,06,00,8.70
2012,10,02,06,01,8.80
2012,10,02,06,02,8.80
2012,10,02,06,03,8.80
2012,10,02,06,04,8.80
2012,10,02,06,05,8.90
2012,10,02,06,06,8.90
2012,10,02,06,07,8.90
2012,10,02,06,08,8.90
2012,10,02,06,09,8.90
2012,10,02,06,10,8.90
2012,10,02,06,11,8.90
2012,10,02,06,12,8.90
2012,10,02,06,13,8.90
2012,10,02,06,14,8.80
2012,10,02,06,15,8.80
2012,10,02,06,16,8.70
2012,10,02,06,17,8.70
2012,10,02,06,18,8.70
2012,10,02,06,19,8.80
2012,10,02,06,20,8.80
2012,10,02,06,21,8.80
2012,10,02,06,22,8.80
2012,10,02,06,23,8.80
2012,10,02,06,24,8.80
2012,10,02,06,25,8.70
2012,10,02,06,26,8.70
2012,10,02,06,27,8.70
2012,10,02,06,28,8.70
2012,10,02,06,29,8.70
2012,10,02,06,30,8.70
2012,10,02,06,31,8.60
2012,10,02,06,32,8.60
2012,10,02,06,33,8.60
2012,10,02,06,34,8.70
2012,10,02,06,35,8.70
2012,10,02,06,36,8.70
2012,10,02,06,37,8.70
2012,10,02,06,38,8.70
2012,10,02,06,39,8.70
2012,10,02,06,40,8.70
2012,10,02,06,41,8.70
2012,10,02,06,42,8.70
2012,10,02,06,43,8.70
2012,10,02,06,44,8.70
2012,10,02,06,45,8.70
2012,10,02,06,46,8.60
2012,10,02,06,47,8.60
2012,10,02,06,48,8.60
2012,10,02,06,49,8.60
2012,10,02,06,50,8.60
2012,10,02,06,51,8.60
2012,10,02,06,52,8.60
2012,10,02,06,53,8.60
2012,10,02,06,54,8.60
2012,10,02,06,55,8.60
2012,10,02,06,56,8.50
2012,10,02,06,57,8.50
2012,10,02,06,58,8.50
2012,10,02,06,59,8.50
2012,10,02,07,00,8.50
2012,10,02,07,01,8.40
2012,10,02,07,02,8.40
2012,10,02,07,03,8.40
2012,10,02,07,04,8.40
2012,10,02,07,05,8.30
2012,10,02,07,06,8.30
2012,10,02,07,07,8.30
2012,10,02,07,08,8.20
2012,10,02,07,09,8.20
2012,10,02,07,10,8.20
2012,10,02,07,11,8.20
2012,10,02,07,12,8.20
2012,10,02,07,13,8.20
2012,10,02,07,14,8.20
2012,10,02,07,15,8.20
2012,10,02,07,16,8.10
2012,10,02,07,17,8.10
2012,10,02,07,18,8.00
2012,10,02,07,19,8.00
2012,10,02,07,20,7.90
2012,10,02,07,21,7.90
2012,10,02,07,22,7.80
2012,10,02,07,23,7.80
2012,10,02,07,24,7.80
2012,10,02,07,25,7.70
2012,10,02,07,26,7.70
2012,10,02,07,27,7.70
2012,10,02,07,28,7.60
2012,10,02,07,29,7.60
2012,10,02,07,30,7.60
2012,10,02,07,31,7.60
2012,10,02,07,32,7.60
2012,10,02,07,33,7.60
2012,10,02,07,34,7.60
2012,10,02,07,35,7.60
2012,10,02,07,36,7.60
2012,10,02,07,37,7.60
2012,10,02,07,38,7.60
2012,10,02,07,39,7.70
2012,10,02,07,40,7.70
2012,10,02,07,41,7.70
2012,10,02,07,42,7.70
2012,10,02,07,43,7.80
2012,10,02,07,44,7.80
2012,10,02,07,45,7.80
2012,10,02,07,46,7.80
2012,10,02,07,47,7.90
2012,10,02,07,48,7.90
2012,10,02,07,49,7.90
2012,10,02,07,50,8.00
2012,10,02,07,51,8.10
2012,10,02,07,52,8.10
2012,10,02,07,53,8.20
2012,10,02,07,54,8.20
2012,10,02,07,55,8.20
2012,10,02,07,56,8.20
2012,10,02,07,57,8.20
2012,10,02,07,58,8.20
2012,10,02,07,59,8.20
2012,10,02,08,00,8.20
2012,10,02,08,01,8.20
2012,10,02,08,02,8.20
2012,10,02,08,03,8.20
2012,10,02,08,04,8.20
2012,10,02,08,05,8.20
2012,10,02,08,06,8.30
2012,10,02,08,07,8.30
2012,10,02,08,08,8.40
2012,10,02,08,09,8.50
2012,10,02,08,10,8.60
2012,10,02,08,11,8.70
2012,10,02,08,12,8.80
2012,10,02,08,13,8.80
2012,10,02,08,14,8.80
2012,10,02,08,15,8.90
2012,10,02,08,16,8.90
2012,10,02,08,17,8.90
2012,10,02,08,18,8.90
2012,10,02,08,19,8.90
2012,10,02,08,20,8.90
2012,10,02,08,21,8.90
2012,10,02,08,22,9.00
2012,10,02,08,23,9.00
2012,10,02,08,24,9.10
2012,10,02,08,25,9.10
2012,10,02,08,26,9.20
2012,10,02,08,27,9.20
2012,10,02,08,28,9.20
2012,10,02,08,29,9.20
2012,10,02,08,30,9.30
2012,10,02,08,31,9.30
2012,10,02,08,32,9.30
2012,10,02,08,33,9.30
2012,10,02,08,34,9.40
2012,10,02,08,35,9.40
2012,10,02,08,36,9.40
2012,10,02,08,37,9.50
2012,10,02,08,38,9.60
2012,10,02,08,39,9.70
2012,10,02,08,40,9.80
2012,10,02,08,41,9.80
2012,10,02,08,42,9.90
2012,10,02,08,43,10.00
2012,10,02,08,44,10.00
2012,10,02,08,45,10.10
2012,10,02,08,46,10.10
2012,10,02,08,47,10.20
2012,10,02,08,48,10.30
2012,10,02,08,49,10.30
2012,10,02,08,50,10.40
2012,10,02,08,51,10.40
2012,10,02,08,52,10.50
2012,10,02,08,53,10.50
2012,10,02,08,54,10.60
2012,10,02,08,55,10.60
2012,10,02,08,56,10.70
2012,10,02,08,57,10.70
2012,10,02,08,58,10.70
2012,10,02,08,59,10.70
2012,10,02,09,00,10.80
2012,10,02,09,01,10.80
2012,10,02,09,02,10.80
2012,10,02,09,03,10.90
2012,10,02,09,04,10.90
2012,10,02,09,05,10.90
2012,10,02,09,06,11.00
2012,10,02,09,07,11.10
2012,10,02,09,08,11.10
2012,10,02,09,09,11.10
2012,10,02,09,10,11.10
2012,10,02,09,11,11.10
2012,10,02,09,12,11.10
2012,10,02,09,13,11.10
2012,10,02,09,14,11.20
2012,10,02,09,15,11.20
2012,10,02,09,16,11.20
2012,10,02,09,17,11.20
2012,10,02,09,18,11.20
2012,10,02,09,19,11.20
2012,10,02,09,20,11.30
2012,10,02,09,21,11.30
2012,10,02,09,22,11.30
2012,10,02,09,23,11.30
2012,10,02,09,24,11.40
2012,10,02,09,25,11.40
2012,10,02,09,26,11.40
2012,10,02,09,27,11.50
2012,10,02,09,28,11.50
2012,10,02,09,29,11.50
2012,10,02,09,30,11.50
2012,10,02,09,31,11.50
2012,10,02,09,32,11.60
2012,10,02,09,33,11.60
2012,10,02,09,34,11.60
2012,10,02,09,35,11.70
2012,10,02,09,36,11.70
2012,10,02,09,37,11.70
2012,10,02,09,38,11.70
2012,10,02,09,39,11.80
2012,10,02,09,40,11.80
2012,10,02,09,41,11.90
2012,10,02,09,42,11.90
2012,10,02,09,43,12.00
2012,10,02,09,44,12.00
2012,10,02,09,45,12.10
2012,10,02,09,46,12.20
2012,10,02,09,47,12.20
2012,10,02,09,48,12.20
2012,10,02,09,49,12.20
2012,10,02,09,50,12.30
2012,10,02,09,51,12.30
2012,10,02,09,52,12.30
2012,10,02,09,53,12.30
2012,10,02,09,54,12.30
2012,10,02,09,55,12.30
2012,10,02,09,56,12.30
2012,10,02,09,57,12.20
2012,10,02,09,58,12.20
2012,10,02,09,59,12.20
2012,10,02,10,00,12.20
2012,10,02,10,01,12.30
2012,10,02,10,02,12.40
2012,10,02,10,03,12.40
2012,10,02,10,04,12.30
2012,10,02,10,05,12.30
2012,10,02,10,06,12.20
2012,10,02,10,07,12.20
2012,10,02,10,08,12.20
2012,10,02,10,09,12.20
2012,10,02,10,10,12.10
2012,10,02,10,11,12.10
2012,10,02,10,12,12.10
2012,10,02,10,13,12.10
2012,10,02,10,14,12.10
2012,10,02,10,15,12.10
2012,10,02,10,16,12.00
2012,10,02,10,17,12.00
2012,10,02,10,18,12.00
2012,10,02,10,19,12.00
2012,10,02,10,20,11.90
2012,10,02,10,21,11.90
2012,10,02,10,22,11.90
2012,10,02,10,23,11.80
2012,10,02,10,24,11.90
2012,10,02,10,25,11.90
2012,10,02,10,26,11.90
2012,10,02,10,27,12.00
2012,10,02,10,28,12.10
2012,10,02,10,29,12.10
2012,10,02,10,30,12.10
2012,10,02,10,31,12.10
2012,10,02,10,32,12.10
2012,10,02,10,33,12.10
2012,10,02,10,34,12.00
2012,10,02,10,35,12.00
2012,10,02,10,36,12.00
2012,10,02,10,37,12.00
2012,10,02,10,38,12.00
2012,10,02,10,39,12.00
2012,10,02,10,40,12.00
2012,10,02,10,41,12.10
2012,10,02,10,42,12.10
2012,10,02,10,43,12.00
2012,10,02,10,44,12.00
2012,10,02,10,45,11.90
2012,10,02,10,46,11.90
2012,10,02,10,47,11.90
2012,10,02,10,48,11.90
2012,10,02,10,49,11.80
2012,10,02,10,50,11.70
2012,10,02,10,51,11.70
2012,10,02,10,52,11.70
2012,10,02,10,53,11.70
2012,10,02,10,54,11.70
2012,10,02,10,55,11.70
2012,10,02,10,56,11.70
2012,10,02,10,57,11.70
2012,10,02,10,58,11.70
2012,10,02,10,59,11.70
2012,10,02,11,00,11.70
2012,10,02,11,01,11.70
2012,10,02,11,02,11.70
2012,10,02,11,03,11.70
2012,10,02,11,04,11.60
2012,10,02,11,05,11.60
2012,10,02,11,06,11.70
2012,10,02,11,07,11.80
2012,10,02,11,08,11.80
2012,10,02,11,09,11.90
2012,10,02,11,10,12.00
2012,10,02,11,11,12.10
2012,10,02,11,12,12.20
2012,10,02,11,13,12.30
2012,10,02,11,14,12.50
2012,10,02,11,15,12.60
2012,10,02,11,16,12.70
2012,10,02,11,17,12.70
2012,10,02,11,18,12.70
2012,10,02,11,19,12.70
2012,10,02,11,20,12.70
2012,10,02,11,21,12.70
2012,10,02,11,22,12.80
2012,10,02,11,23,12.80
2012,10,02,11,24,12.90
2012,10,02,11,25,12.90
2012,10,02,11,26,13.00
2012,10,02,11,27,13.00
2012,10,02,11,28,13.00
2012,10,02,11,29,13.00
2012,10,02,11,30,13.10
2012,10,02,11,31,13.10
2012,10,02,11,32,13.00
2012,10,02,11,33,13.00
2012,10,02,11,34,13.10
2012,10,02,11,35,13.10
2012,10,02,11,36,13.10
2012,10,02,11,37,13.20
2012,10,02,11,38,13.20
2012,10,02,11,39,13.10
2012,10,02,11,40,13.10
2012,10,02,11,41,13.10
2012,10,02,11,42,13.10
2012,10,02,11,43,13.10
2012,10,02,11,44,13.10
2012,10,02,11,45,13.00
2012,10,02,11,46,13.10
2012,10,02,11,47,13.10
2012,10,02,11,48,13.20
2012,10,02,11,49,13.20
2012,10,02,11,50,13.20
2012,10,02,11,51,13.30
2012,10,02,11,52,13.20
2012,10,02,11,53,13.20
2012,10,02,11,54,13.20
2012,10,02,11,55,13.20
2012,10,02,11,56,13.20
2012,10,02,11,57,13.20
2012,10,02,11,58,13.30
2012,10,02,11,59,13.30
2012,10,02,12,00,13.30
2012,10,02,12,01,13.30
2012,10,02,12,02,13.40
2012,10,02,12,03,13.40
2012,10,02,12,04,13.50
2012,10,02,12,05,13.60
2012,10,02,12,06,13.60
2012,10,02,12,07,13.70
2012,10,02,12,08,13.70
2012,10,02,12,09,13.70
2012,10,02,12,10,13.80
2012,10,02,12,11,13.80
2012,10,02,12,12,13.80
2012,10,02,12,13,13.80
2012,10,02,12,14,13.90
2012,10,02,12,15,13.90
2012,10,02,12,16,14.00
2012,10,02,12,17,14.00
2012,10,02,12,18,14.00
2012,10,02,12,19,13.90
2012,10,02,12,20,13.90
2012,10,02,12,21,13.90
2012,10,02,12,22,14.00
2012,10,02,12,23,14.00
2012,10,02,12,24,14.00
2012,10,02,12,25,13.90
2012,10,02,12,26,13.90
2012,10,02,12,27,13.90
2012,10,02,12,28,13.90
2012,10,02,12,29,13.90
2012,10,02,12,30,13.90
2012,10,02,12,31,14.00
2012,10,02,12,32,13.90
2012,10,02,12,33,13.90
2012,10,02,12,34,13.90
2012,10,02,12,35,13.90
2012,10,02,12,36,13.90
2012,10,02,12,37,14.00
2012,10,02,12,38,14.10
2012,10,02,12,39,14.20
2012,10,02,12,40,14.20
2012,10,02,12,41,14.20
2012,10,02,12,42,14.20
2012,10,02,12,43,14.20
2012,10,02,12,44,14.20
2012,10,02,12,45,14.20
2012,10,02,12,46,14.30
2012,10,02,12,47,14.30
2012,10,02,12,48,14.40
2012,10,02,12,49,14.50
2012,10,02,12,50,14.50
2012,10,02,12,51,14.50
2012,10,02,12,52,14.60
2012,10,02,12,53,14.70
2012,10,02,12,54,14.70
2012,10,02,12,55,14.70
2012,10,02,12,56,14.70
2012,10,02,12,57,14.70
2012,10,02,12,58,14.80
2012,10,02,12,59,14.80
2012,10,02,13,00,14.80
2012,10,02,13,01,14.90
2012,10,02,13,02,14.90
2012,10,02,13,03,15.00
2012,10,02,13,04,15.00
2012,10,02,13,05,15.00
2012,10,02,13,06,15.00
2012,10,02,13,07,15.00
2012,10,02,13,08,14.90
2012,10,02,13,09,14.80
2012,10,02,13,10,14.80
2012,10,02,13,11,14.80
2012,10,02,13,12,14.70
2012,10,02,13,13,14.60
2012,10,02,13,14,14.60
2012,10,02,13,15,14.50
2012,10,02,13,16,14.50
2012,10,02,13,17,14.40
2012,10,02,13,18,14.30
2012,10,02,13,19,14.30
2012,10,02,13,20,14.30
2012,10,02,13,21,14.40
2012,10,02,13,22,14.50
2012,10,02,13,23,14.60
2012,10,02,13,24,14.70
2012,10,02,13,25,14.70
2012,10,02,13,26,14.50
2012,10,02,13,27,14.30
2012,10,02,13,28,14.30
2012,10,02,13,29,14.30
2012,10,02,13,30,14.40
2012,10,02,13,31,14.50
2012,10,02,13,32,14.60
2012,10,02,13,33,14.70
2012,10,02,13,34,14.60
2012,10,02,13,35,14.50
2012,10,02,13,36,14.30
2012,10,02,13,37,14.20
2012,10,02,13,38,14.20
2012,10,02,13,39,14.10
2012,10,02,13,40,14.10
2012,10,02,13,41,14.20
2012,10,02,13,42,14.20
2012,10,02,13,43,14.20
2012,10,02,13,44,14.20
2012,10,02,13,45,14.30
2012,10,02,13,46,14.20
2012,10,02,13,47,14.20
2012,10,02,13,48,14.20
2012,10,02,13,49,14.30
2012,10,02,13,50,14.20
2012,10,02,13,51,14.20
2012,10,02,13,52,14.00
2012,10,02,13,53,14.00
2012,10,02,13,54,13.90
2012,10,02,13,55,13.90
2012,10,02,13,56,13.90
2012,10,02,13,57,14.00
2012,10,02,13,58,14.00
2012,10,02,13,59,14.10
2012,10,02,14,00,14.10
2012,10,02,14,01,14.20
2012,10,02,14,02,14.20
2012,10,02,14,03,14.30
2012,10,02,14,04,14.40
2012,10,02,14,05,14.50
2012,10,02,14,06,14.50
2012,10,02,14,07,14.50
2012,10,02,14,08,14.50
2012,10,02,14,09,14.40
2012,10,02,14,10,14.40
2012,10,02,14,11,14.50
2012,10,02,14,12,14.50
2012,10,02,14,13,14.50
2012,10,02,14,14,14.40
2012,10,02,14,15,14.40
2012,10,02,14,16,14.40
2012,10,02,14,17,14.40
2012,10,02,14,18,14.40
2012,10,02,14,19,14.30
2012,10,02,14,20,14.20
2012,10,02,14,21,14.20
2012,10,02,14,22,14.10
2012,10,02,14,23,14.10
2012,10,02,14,24,14.20
2012,10,02,14,25,14.20
2012,10,02,14,26,14.20
2012,10,02,14,27,14.20
2012,10,02,14,28,14.30
2012,10,02,14,29,14.30
2012,10,02,14,30,14.30
2012,10,02,14,31,14.30
2012,10,02,14,32,14.30
2012,10,02,14,33,14.30
2012,10,02,14,34,14.30
2012,10,02,14,35,14.40
2012,10,02,14,36,14.40
2012,10,02,14,37,14.50
2012,10,02,14,38,14.60
2012,10,02,14,39,14.70
2012,10,02,14,40,14.70
2012,10,02,14,41,14.70
2012,10,02,14,42,14.70
2012,10,02,14,43,14.80
2012,10,02,14,44,14.80
2012,10,02,14,45,14.80
2012,10,02,14,46,14.70
2012,10,02,14,47,14.80
2012,10,02,14,48,14.80
2012,10,02,14,49,14.80
2012,10,02,14,50,14.80
2012,10,02,14,51,14.80
2012,10,02,14,52,14.80
2012,10,02,14,53,14.80
2012,10,02,14,54,14.80
2012,10,02,14,55,14.80
2012,10,02,14,56,14.70
2012,10,02,14,57,14.70
2012,10,02,14,58,14.60
2012,10,02,14,59,14.50
2012,10,02,15,00,14.50
2012,10,02,15,01,14.50
2012,10,02,15,02,14.50
2012,10,02,15,03,14.50
2012,10,02,15,04,14.40
2012,10,02,15,05,14.40
2012,10,02,15,06,14.40
2012,10,02,15,07,14.30
2012,10,02,15,08,14.30
2012,10,02,15,09,14.30
2012,10,02,15,10,14.30
2012,10,02,15,11,14.40
2012,10,02,15,12,14.40
2012,10,02,15,13,14.40
2012,10,02,15,14,14.30
2012,10,02,15,15,14.40
2012,10,02,15,16,14.50
2012,10,02,15,17,14.60
2012,10,02,15,18,14.70
2012,10,02,15,19,14.70
2012,10,02,15,20,14.70
2012,10,02,15,21,14.70
2012,10,02,15,22,14.70
2012,10,02,15,23,14.70
2012,10,02,15,24,14.70
2012,10,02,15,25,14.60
2012,10,02,15,26,14.60
2012,10,02,15,27,14.60
2012,10,02,15,28,14.60
2012,10,02,15,29,14.60
2012,10,02,15,30,14.60
2012,10,02,15,31,14.60
2012,10,02,15,32,14.60
2012,10,02,15,33,14.70
2012,10,02,15,34,14.70
2012,10,02,15,35,14.70
2012,10,02,15,36,14.70
2012,10,02,15,37,14.80
2012,10,02,15,38,14.80
2012,10,02,15,39,15.00
2012,10,02,15,40,15.00
2012,10,02,15,41,15.00
2012,10,02,15,42,15.10
2012,10,02,15,43,15.20
2012,10,02,15,44,15.30
2012,10,02,15,45,15.40
2012,10,02,15,46,15.40
2012,10,02,15,47,15.50
2012,10,02,15,48,15.60
2012,10,02,15,49,15.70
2012,10,02,15,50,15.80
2012,10,02,15,51,15.80
2012,10,02,15,52,15.80
2012,10,02,15,53,15.80
2012,10,02,15,54,15.80
2012,10,02,15,55,15.80
2012,10,02,15,56,15.80
2012,10,02,15,57,15.70
2012,10,02,15,58,15.70
2012,10,02,15,59,15.70
2012,10,02,16,00,15.70
2012,10,02,16,01,15.60
2012,10,02,16,02,15.60
2012,10,02,16,03,15.60
2012,10,02,16,04,15.50
2012,10,02,16,05,15.40
2012,10,02,16,06,15.40
2012,10,02,16,07,15.30
2012,10,02,16,08,15.30
2012,10,02,16,09,15.30
2012,10,02,16,10,15.20
2012,10,02,16,11,15.30
2012,10,02,16,12,15.30
2012,10,02,16,13,15.40
2012,10,02,16,14,15.40
2012,10,02,16,15,15.40
2012,10,02,16,16,15.40
2012,10,02,16,17,15.50
2012,10,02,16,18,15.50
2012,10,02,16,19,15.60
2012,10,02,16,20,15.60
2012,10,02,16,21,15.60
2012,10,02,16,22,15.50
2012,10,02,16,23,15.50
2012,10,02,16,24,15.40
2012,10,02,16,25,15.30
2012,10,02,16,26,15.30
2012,10,02,16,27,15.20
2012,10,02,16,28,15.20
2012,10,02,16,29,15.20
2012,10,02,16,30,15.20
2012,10,02,16,31,15.20
2012,10,02,16,32,15.20
2012,10,02,16,33,15.20
2012,10,02,16,34,15.10
2012,10,02,16,35,15.10
2012,10,02,16,36,15.00
2012,10,02,16,37,15.00
2012,10,02,16,38,15.00
2012,10,02,16,39,15.00
2012,10,02,16,40,15.00
2012,10,02,16,41,15.10
2012,10,02,16,42,15.10
2012,10,02,16,43,15.10
2012,10,02,16,44,15.10
2012,10,02,16,45,15.10
2012,10,02,16,46,15.10
2012,10,02,16,47,15.20
2012,10,02,16,48,15.30
2012,10,02,16,49,15.30
2012,10,02,16,50,15.30
2012,10,02,16,51,15.30
2012,10,02,16,52,15.30
2012,10,02,16,53,15.30
2012,10,02,16,54,15.30
2012,10,02,16,55,15.30
2012,10,02,16,56,15.30
2012,10,02,16,57,15.30
2012,10,02,16,58,15.30
2012,10,02,16,59,15.30
2012,10,02,17,00,15.30
2012,10,02,17,01,15.30
2012,10,02,17,02,15.30
2012,10,02,17,03,15.30
2012,10,02,17,04,15.30
2012,10,02,17,05,15.20
2012,10,02,17,06,15.20
2012,10,02,17,07,15.20
2012,10,02,17,08,15.20
2012,10,02,17,09,15.20
2012,10,02,17,10,15.10
2012,10,02,17,11,15.00
2012,10,02,17,12,15.00
2012,10,02,17,13,15.00
2012,10,02,17,14,15.00
2012,10,02,17,15,15.00
2012,10,02,17,16,15.00
2012,10,02,17,17,15.00
2012,10,02,17,18,14.90
2012,10,02,17,19,14.90
2012,10,02,17,20,14.90
2012,10,02,17,21,15.00
2012,10,02,17,22,15.00
2012,10,02,17,23,15.00
2012,10,02,17,24,15.00
2012,10,02,17,25,15.00
2012,10,02,17,26,15.00
2012,10,02,17,27,15.00
2012,10,02,17,28,15.00
2012,10,02,17,29,15.00
2012,10,02,17,30,15.00
2012,10,02,17,31,15.00